Overview Statistics Trail Chart Weather Telemetry Raw packets
 

This is the latest recevied weather packets stored in our database for station/object SV9FBP-13. If no packets are shown the sender has not sent any weather packets the latest 10 day(s).

<< 27 28 29 30 31 32 33 >>
Time Temp. Humidity Pressure Rain* Wind** Luminosity Snow
1788018052 28.33° C 40% 1009.1 hPa 0 mm - - -
1788017150 28.89° C 40% 1008.9 hPa 0 mm - - -
1788016248 28.89° C 40% 1009 hPa 0 mm - - -
1788015346 28.89° C 41% 1009 hPa 0 mm - - -
1788014444 29.44° C 40% 1008.9 hPa 0 mm - - -
1788013543 29.44° C 40% 1008.9 hPa 0 mm - - -
1788012642 29.44° C 40% 1008.6 hPa 0 mm - - -
1788011738 30° C 36% 1008.7 hPa 0 mm - - -
1788010835 30° C 34% 1008.9 hPa 0 mm - - -
1788009933 30° C 34% 1008.6 hPa 0 mm - - -
1788009031 30.56° C 34% 1008.5 hPa 0 mm - - -
1788008129 30.56° C 35% 1008.8 hPa 0 mm - - -
1788007227 30.56° C 35% 1008.6 hPa 0 mm - - -
1788006325 30.56° C 33% 1008.8 hPa 0 mm - - -
1788005422 30.56° C 32% 1008.7 hPa 0 mm - - -
1788004520 30° C 33% 1009.1 hPa 0 mm - - -
1788003618 30.56° C 33% 1009.2 hPa 0 mm - - -
1788002717 30.56° C 33% 1009 hPa 0 mm - - -
1788001814 30.56° C 34% 1009.1 hPa 0 mm - - -
1788000915 30° C 35% 1009.1 hPa 0 mm - - -
1788000010 29.44° C 35% 1009.4 hPa 0 mm - - -
1787999124 29.44° C 38% 1009.8 hPa 0 mm - - -
1787998219 29.44° C 39% 1009.6 hPa 0 mm - - -
1787997303 29.44° C 39% 1009.4 hPa 0 mm - - -
1787996401 29.44° C 40% 1009.7 hPa 0 mm - - -

* Rain latest hour (hover to see other rain measurements)
** Current wind speed in m/s (hover to see current wind gust speed)